DW0354 Weather Reports


time (UTC)temp
C
wind
direction
speed
KPH
gust
KPH
rain 1hr
cm
rain 24hr
cm
rain mn
cm
humidity
%
barometer
mb
20260510044515 22 101 0.0 0.0 0.00 0.03 0.03 78 1011.5
20260510043018 22 101 0.0 0.0 0.00 0.03 0.03 78 1011.5
20260510041517 22 122 0.0 0.0 0.00 0.03 0.03 77 1011.5
20260510040016 22 122 0.0 0.0 0.00 0.03 0.03 75 1011.4
20260510034519 23 122 0.0 0.0 0.00 0.03 0.03 73 1011.2
20260510033015 23 122 0.0 0.0 0.00 0.03 0.03 71 1011.1
20260510031526 24 122 0.0 0.0 0.00 0.03 0.03 69 1010.9
20260510030018 25 122 0.0 0.0 0.00 0.03 0.03 68 1010.8
20260510024518 25 122 0.0 3.2 0.00 0.03 0.03 67 1010.7
20260510023018 25 80 3.2 9.7 0.00 0.03 0.03 66 1010.6
20260510021532 25 104 3.2 11.3 0.00 0.03 0.03 65 1010.4
20260510020025 26 84 3.2 11.3 0.00 0.03 0.03 63 1010.2
20260510014523 26 94 4.8 9.7 0.00 0.03 0.03 60 1009.9
20260510013018 27 112 4.8 6.4 0.00 0.03 0.03 57 1009.7
20260510011520 28 91 4.8 14.5 0.00 0.03 0.03 56 1009.5
20260510010023 29 93 1.6 6.4 0.00 0.03 0.03 56 1009.2
20260510004521 30 87 3.2 9.7 0.00 0.03 0.03 52 1009.0
20260510003023 31 150 0.0 11.3 0.00 0.03 0.03 45 1008.9
20260510001535 31 120 6.4 11.3 0.00 0.03 0.03 42 1008.8
20260510000024 31 120 1.6 11.3 0.00 0.03 0.03 44 1008.6
20260509234522 32 134 4.8 16.1 0.00 0.03 0.03 43 1008.5
20260509231508 33 100 6.4 17.7 0.00 0.03 0.03 43 1008.3
20260509230011 33 99 1.6 4.8 0.00 0.03 0.03 42 1008.5
20260509223021 34 73 0.0 6.4 0.00 0.03 0.03 42 1008.4
20260509221526 33 343 1.6 8.0 0.00 0.03 0.03 38 1008.4
20260509220009 33 277 4.8 11.3 0.00 0.03 0.03 38 1008.5
20260509211526 33 308 3.2 14.5 0.00 0.03 0.03 44 1008.8
20260509210026 33 149 1.6 9.7 0.00 0.03 0.03 47 1009.0
20260509203017 32 200 3.2 12.9 0.00 0.03 0.03 50 1009.4
20260509200022 31 213 0.0 11.3 0.00 0.03 0.03 49 1009.7
20260509194533 32 166 6.4 9.7 0.00 0.03 0.03 52 1010.0
20260509193023 32 145 3.2 9.7 0.00 0.03 0.03 51 1010.4
20260509184528 31 233 4.8 9.7 0.00 0.03 0.03 58 1010.8
20260509180024 30 194 3.2 12.9 0.00 0.03 0.03 62 1011.2
20260509174507 29 211 3.2 9.7 0.00 0.03 0.03 66 1011.3
20260509171516 28 148 1.6 6.4 0.00 0.03 0.03 69 1011.6
20260509170023 27 351 0.0 6.4 0.00 0.03 0.03 72 1011.6
20260509163018 26 268 1.6 6.4 0.00 0.03 0.03 77 1012.0
20260509160022 24 226 3.2 6.4 0.00 0.03 0.03 88 1012.4
20260509151513 22 204 4.8 11.3 0.00 0.03 0.03 94 1011.9
20260509144524 21 117 0.0 0.0 0.00 0.03 0.03 94 1012.4
20260509143026 21 339 0.0 3.2 0.00 0.03 0.03 94 1012.2
20260509134518 21 350 0.0 4.8 0.00 0.03 0.03 94 1011.6
20260509133026 21 33 1.6 4.8 0.00 0.03 0.03 94 1011.6
20260509131534 21 73 0.0 0.0 0.00 0.03 0.03 94 1011.7
20260509130029 21 28 0.0 3.2 0.00 0.03 0.03 94 1011.7
20260509124526 21 337 0.0 3.2 0.00 0.03 0.03 94 1011.8
20260509121536 21 9 1.6 9.7 0.00 0.03 0.03 94 1011.8
20260509120033 21 9 4.8 12.9 0.00 0.03 0.03 94 1011.5
20260509114516 21 50 1.6 6.4 0.00 0.03 0.03 94 1011.5
20260509113019 21 36 1.6 6.4 0.00 0.03 0.03 94 1012.0
20260509111524 21 350 3.2 6.4 0.03 0.03 0.03 94 1011.9
20260509110009 21 24 0.0 0.0 0.03 0.03 0.03 94 1011.5
20260509100031 21 9 0.0 0.0 0.00 0.00 0.00 93 1010.8
20260509094514 21 9 1.6 6.4 0.00 0.00 0.00 93 1010.8
20260509093016 21 5 1.6 4.8 0.00 0.00 0.00 93 1010.3
20260509091523 21 75 0.0 0.0 0.00 0.00 0.00 93 1010.3
20260509090026 21 105 0.0 0.0 0.00 0.00 0.00 93 1010.2
20260509084515 21 105 0.0 0.0 0.00 0.00 0.00 93 1010.6
20260509083014 21 105 0.0 0.0 0.00 0.00 0.00 93 1010.6
20260509081522 21 105 0.0 3.2 0.00 0.00 0.00 93 1010.8
20260509074526 21 110 0.0 0.0 0.00 0.00 0.00 93 1010.1
20260509073014 21 146 0.0 0.0 0.00 0.00 0.00 93 1010.3
20260509071517 21 192 0.0 8.0 0.00 0.00 0.00 93 1010.3
20260509070023 21 188 0.0 0.0 0.00 0.00 0.00 93 1010.6
20260509063027 21 171 0.0 4.8 0.00 0.00 0.00 93 1010.7
20260509061533 21 164 0.0 3.2 0.00 0.00 0.00 92 1010.7
20260509060021 21 187 1.6 6.4 0.00 0.00 0.00 92 1010.8
20260509054526 21 194 1.6 4.8 0.00 0.00 0.00 92 1011.2
20260509053027 21 130 0.0 4.8 0.00 0.00 0.00 92 1011.1
20260509051526 20 144 0.0 3.2 0.00 0.00 0.00 92 1011.4
20260509050018 20 190 0.0 4.8 0.00 0.00 0.00 92 1011.5